Theta_e
311 311 312 315 324 326 331 331 327 330 330 327 327 330 336 339 348 350 350 348 343 340 342 342 343 341 335 332 331 330 330 331 330 330 329 326 324 326 322 327 328 328 331 333 331 326 325 325 323
310 311 313 318 326 330 331 328 329 331 328 327 329 329 340 349 352 351 349 342 341 340 341 342 343 339 334 334 332 330 329 327 325 324 324 324 325 325 324 328 326 326 328 326 323 322 322 322 322
310 312 315 319 323 330 331 327 328 328 326 327 328 326 338 350 353 351 348 337 340 341 339 341 341 337 335 334 333 332 330 327 323 323 323 324 326 323 328 326 324 323 325 323 325 325 324 324 323
312 313 314 318 323 325 329 328 327 326 325 325 324 329 327 331 351 350 347 338 338 340 340 341 341 338 337 336 335 335 333 328 323 322 324 325 324 323 327 326 323 322 324 326 326 325 325 325 333
310 313 315 316 318 320 322 326 324 327 325 325 323 327 325 327 349 350 346 339 338 339 341 342 341 337 337 336 337 337 336 332 325 322 323 323 323 324 327 326 323 322 325 326 326 326 331 335 339
311 312 314 314 316 317 319 320 322 324 323 322 323 323 328 332 346 352 347 342 340 337 339 342 340 338 337 336 338 338 338 336 328 322 323 322 322 324 327 326 324 323 324 326 327 327 334 338 339
312 313 313 313 313 314 316 318 320 322 322 322 321 324 327 332 342 354 348 347 342 339 338 342 341 339 338 337 337 338 339 339 334 327 322 321 321 322 324 325 326 324 324 326 328 329 329 333 334
312 314 313 312 313 313 314 315 317 319 321 318 319 324 327 342 341 353 349 348 344 341 340 342 341 340 338 338 338 339 340 339 338 332 326 322 322 323 323 324 327 326 324 324 326 329 330 331 331
311 313 313 313 312 313 315 316 315 316 317 317 318 326 330 330 343 354 350 350 345 343 342 342 342 342 340 338 338 339 340 340 339 338 332 326 323 323 323 324 325 327 327 323 322 323 325 325 326
314 314 314 313 313 313 314 314 316 317 317 318 318 318 318 334 345 349 351 350 344 343 343 343 343 342 341 340 340 340 340 341 340 339 337 332 328 324 322 323 324 326 328 328 322 320 322 323 324
312 314 314 312 313 313 314 314 314 316 317 317 318 318 331 326 352 354 353 352 345 343 344 344 344 343 342 341 342 341 341 341 341 340 340 337 333 329 327 325 324 325 326 328 324 322 321 321 322
312 312 313 313 313 314 315 314 315 315 315 315 316 316 330 340 351 353 354 351 345 342 342 342 343 344 343 343 343 342 341 340 341 341 340 340 338 334 331 328 327 324 325 324 323 322 323 323 323
311 312 311 312 313 313 313 314 315 315 315 315 315 316 317 336 350 353 354 350 346 344 343 342 343 343 343 343 343 342 342 340 339 341 341 341 340 337 334 331 328 326 324 323 325 324 323 323 323
313 311 312 311 312 312 313 313 313 314 315 315 315 315 316 331 349 351 353 351 349 348 347 343 341 341 342 341 341 342 341 339 338 339 341 341 341 339 337 333 329 326 324 324 325 327 326 331 333
312 312 311 312 312 312 311 312 313 313 313 314 315 315 316 321 349 352 353 353 353 352 349 343 340 339 340 341 341 342 341 337 337 339 340 341 340 339 338 334 330 326 326 324 327 333 335 339 341
314 314 315 314 311 311 311 315 314 313 313 314 314 315 315 316 334 348 349 348 347 351 351 348 347 344 342 342 341 342 340 336 337 340 340 341 341 340 338 334 332 328 334 335 335 338 339 339 340
313 316 315 315 313 313 311 314 314 313 313 314 315 316 316 317 317 329 326 334 341 347 349 349 349 349 349 349 345 343 339 337 338 340 341 341 340 338 337 334 333 331 333 338 339 340 338 339 337
317 314 313 315 313 313 314 312 314 313 312 314 315 316 316 317 317 317 318 319 324 336 347 348 345 346 346 348 347 344 339 339 340 341 339 338 338 337 336 335 334 337 337 337 338 333 333 336 334
316 315 315 314 314 313 314 315 313 314 313 314 314 315 316 316 317 317 317 318 320 328 343 344 341 339 339 343 347 344 341 341 341 340 339 339 338 338 338 338 340 340 338 336 335 335 335 335 331
316 314 315 315 314 313 315 315 315 314 315 314 315 316 316 316 316 316 316 316 317 322 337 340 337 336 339 342 346 344 341 342 340 338 338 337 337 340 339 338 338 335 332 331 333 335 335 334 331
318 317 314 314 314 313 315 316 316 316 315 315 315 316 317 317 316 316 316 316 317 320 326 328 332 335 339 342 344 343 341 340 339 339 338 337 336 337 338 338 333 329 330 335 334 334 332 332 329
319 317 315 314 315 316 316 317 317 317 317 317 317 316 317 317 317 316 316 316 316 318 324 331 333 334 337 342 342 340 340 341 339 339 338 337 337 337 338 338 333 332 333 332 333 330 329 331 333
318 317 316 315 315 316 316 316 317 317 317 318 319 318 318 317 317 317 315 316 316 320 326 331 335 336 337 341 338 338 339 339 338 337 337 338 336 336 335 334 333 332 329 329 328 330 331 332 331
317 317 317 316 316 317 317 317 318 317 318 318 319 319 319 318 316 316 316 319 319 324 325 326 333 337 338 340 339 338 337 337 335 334 335 336 335 334 335 334 331 332 332 333 332 332 333 331 329
315 316 316 317 316 318 317 316 318 318 320 323 325 322 317 317 315 316 321 329 332 327 330 333 336 337 339 338 337 335 336 335 336 332 335 335 335 336 335 332 332 333 333 332 331 329 328 326 324
316 315 316 317 317 317 315 317 317 323 331 331 326 326 327 324 326 329 332 334 331 334 335 337 338 340 340 338 337 335 335 336 337 332 329 329 332 334 332 332 332 330 329 327 325 324 324 324 324
316 315 316 317 317 317 316 318 329 330 331 331 330 332 333 334 334 335 333 335 337 336 337 338 339 337 336 335 335 335 335 334 335 333 332 333 333 334 333 331 329 327 326 325 325 325 323 321 318
316 316 317 317 317 318 317 319 323 331 331 329 328 328 328 328 330 332 333 332 333 336 336 336 335 335 331 328 328 328 330 331 331 331 331 331 330 328 326 326 325 324 323 323 322 319 317 314 312
318 317 317 317 319 320 321 320 328 330 329 329 327 326 323 323 327 330 331 332 333 333 332 331 328 324 323 323 323 324 324 325 325 323 324 323 325 324 323 323 320 317 315 314 313 312 312 312 311
318 318 318 318 320 320 320 331 326 328 326 327 324 321 320 320 321 323 325 326 327 327 329 329 326 326 324 322 322 322 324 321 318 318 317 316 316 316 315 314 313 312 312 312 311 311 310 309 309
Wind_Speed
12 11 6 3 4 3 7 6 2 3 4 0 7 5 7 3 3 3 3 19 21 30 30 27 27 25 23 19 17 15 15 15 15 13 12 11 12 14 16 15 14 13 13 13 12 11 11 11 11
11 9 5 3 6 10 11 6 8 9 1 12 8 5 2 1 2 3 7 18 27 30 30 29 28 26 23 20 17 15 14 13 13 13 13 13 14 16 16 15 13 13 13 12 12 12 13 13 13
10 10 5 4 6 17 14 7 8 7 5 5 5 4 4 3 4 2 7 18 29 32 30 30 30 27 24 21 19 16 14 12 12 13 14 15 16 17 16 14 12 12 12 12 12 12 13 13 14
8 5 2 7 17 18 20 4 4 3 2 2 6 6 8 6 4 5 11 22 28 31 30 31 31 29 26 24 21 17 14 11 12 14 15 16 17 18 16 14 13 13 13 13 12 12 13 15 15
11 3 4 7 17 10 6 13 7 7 2 3 8 9 7 9 6 7 17 23 27 31 32 32 30 28 27 26 23 19 15 12 12 14 15 16 18 18 16 14 14 14 14 13 13 12 13 14 13
4 2 5 15 20 15 13 11 9 12 8 4 5 7 7 8 7 8 22 25 28 31 33 32 31 29 27 25 23 21 18 14 12 12 14 15 17 17 15 13 13 14 14 13 12 12 13 12 10
6 4 9 9 11 15 11 10 15 16 18 14 6 5 6 7 8 9 23 23 30 32 32 33 32 30 28 25 23 21 19 16 15 13 13 14 14 15 14 14 13 13 13 13 12 12 11 11 10
7 4 7 9 14 14 3 10 9 13 14 8 7 6 3 8 6 12 22 22 30 32 32 33 33 32 30 28 25 22 20 18 16 14 14 15 15 15 16 15 14 13 13 13 12 12 13 12 12
9 7 14 15 15 9 1 4 9 8 9 6 5 5 6 14 9 13 25 22 30 32 33 34 34 33 31 28 26 24 22 20 18 16 14 15 16 17 16 16 16 14 14 13 14 16 16 16 16
11 11 16 7 15 8 9 15 8 6 7 6 6 5 11 8 13 17 26 29 34 33 33 35 35 33 31 29 28 26 24 24 22 20 19 16 15 15 15 15 15 16 15 15 15 16 17 17 16
12 18 14 12 19 14 16 19 12 10 14 15 11 10 8 10 13 19 23 27 32 32 33 34 34 32 31 31 30 28 27 26 25 23 20 17 16 15 16 16 17 17 18 18 18 17 17 16 16
12 18 18 14 13 14 16 16 15 16 21 10 10 12 9 8 14 20 22 26 32 33 32 33 34 33 32 31 29 28 28 28 26 25 22 21 19 18 16 16 18 19 21 22 21 19 18 16 15
21 13 20 27 17 23 22 18 14 9 11 14 14 17 17 13 14 19 23 26 30 31 30 32 33 32 32 30 30 30 30 28 26 25 24 23 21 19 18 18 19 19 20 22 21 20 18 17 17
7 24 20 15 25 27 24 23 19 12 11 16 15 18 15 16 16 19 26 29 30 31 30 30 30 31 31 31 30 30 27 26 26 27 26 24 22 20 19 18 18 19 20 20 20 19 17 16 17
16 8 11 21 24 15 9 21 22 26 24 24 19 19 17 14 18 23 23 26 27 26 26 27 27 29 31 31 29 29 27 26 28 28 26 25 24 21 20 18 18 19 19 17 18 17 16 16 15
15 15 17 13 11 13 13 21 6 21 24 26 24 23 22 16 21 22 23 23 22 24 25 24 24 27 28 28 27 27 26 28 29 29 27 26 22 21 20 19 21 20 18 15 16 17 15 15 15
13 14 20 12 14 10 19 13 16 24 16 17 18 20 20 20 21 24 23 22 23 23 23 22 23 25 27 27 28 27 27 28 29 28 26 22 19 19 19 21 20 19 18 15 15 13 15 17 20
15 18 9 16 14 23 22 19 9 3 22 25 23 20 19 21 25 23 21 20 21 22 25 25 26 27 27 27 28 28 28 29 27 23 20 18 14 14 19 21 19 18 16 16 16 16 18 20 21
15 16 19 13 8 16 23 21 19 18 13 14 17 18 18 21 23 27 26 25 25 25 26 29 28 27 27 28 29 29 28 27 22 17 16 19 18 19 19 17 15 17 16 17 18 22 21 20 20
18 9 12 12 18 13 14 23 20 21 18 20 22 22 20 20 24 24 24 26 28 28 29 29 28 29 29 29 30 30 27 22 19 18 18 16 16 15 13 14 14 15 17 17 16 18 18 14 16
23 22 9 5 12 13 6 15 12 15 18 18 20 19 21 22 25 25 27 29 28 32 32 32 32 32 30 29 29 26 25 23 22 18 18 16 15 17 16 15 11 12 18 21 17 15 14 14 15
26 23 16 9 9 10 10 4 11 17 14 15 20 20 21 23 27 28 28 30 33 32 35 36 35 32 30 29 27 22 22 18 16 14 12 15 16 13 15 17 16 14 19 15 14 13 13 14 13
22 19 21 14 8 5 10 6 8 5 14 17 15 21 24 28 29 30 28 29 29 31 36 36 35 33 31 28 22 19 16 14 9 10 15 16 14 13 15 14 15 17 14 13 12 13 13 14 13
11 20 20 16 11 12 19 12 6 10 14 12 11 11 18 22 24 26 24 24 26 29 33 34 34 31 29 21 19 16 12 10 6 5 5 11 13 14 14 12 13 14 14 12 11 12 13 15 16
20 21 9 11 10 8 13 12 10 7 2 5 5 4 3 12 18 20 19 18 21 25 27 27 25 20 13 13 13 11 10 8 7 6 6 8 11 13 13 13 12 12 13 12 12 12 14 15 16
28 23 12 18 16 15 6 11 4 5 3 2 4 5 11 17 18 18 18 18 18 19 23 23 18 13 10 10 12 12 9 10 9 10 9 9 11 12 12 12 11 12 11 12 13 14 16 18 21
28 23 13 10 10 10 8 4 4 5 5 6 9 12 15 19 21 22 22 22 22 22 23 20 16 14 14 16 15 12 8 6 7 8 9 10 10 10 10 11 11 11 12 14 16 18 20 23 26
28 26 12 7 12 11 12 8 5 9 8 8 10 13 17 22 25 25 24 24 25 24 24 22 18 18 19 17 14 10 7 3 3 6 8 9 10 10 10 10 12 13 16 18 20 22 25 27 28
18 21 18 3 2 6 9 8 2 8 9 11 12 16 21 25 28 30 30 29 31 30 30 31 29 26 21 16 12 13 10 8 3 3 5 6 8 10 12 13 15 16 18 21 22 25 27 28 30
16 23 21 12 8 2 2 4 3 9 10 12 16 20 23 27 30 36 39 39 36 35 33 29 24 20 17 15 12 7 15 8 7 7 8 9 10 12 14 16 18 19 21 23 26 27 28 30 32
Wind_Direction
239 247 229 191 227 251 242 223 282 193 196 332 298 263 281 282 268 355 292 170 176 175 173 173 171 171 171 167 165 165 165 166 170 174 173 168 160 155 154 152 150 150 153 156 159 161 160 156 145
223 213 183 141 226 226 236 222 211 230 150 320 318 316 240 20 266 292 142 166 166 174 173 173 171 173 170 169 172 169 166 167 170 174 174 169 161 158 157 153 151 154 157 158 158 156 153 150 146
209 181 172 195 220 230 241 218 239 268 280 295 328 326 325 304 301 234 167 165 168 176 174 174 172 173 171 174 172 171 169 167 168 171 170 168 164 162 159 155 152 154 155 154 153 151 150 147 146
172 153 95 225 222 241 236 196 213 167 102 146 357 303 315 295 295 230 179 167 169 175 175 175 175 176 176 177 174 172 168 165 166 168 169 170 170 167 164 160 156 155 155 156 154 151 151 150 151
167 154 208 226 233 247 229 228 206 257 240 249 338 308 286 291 266 203 178 170 172 175 177 178 178 179 179 179 176 174 172 168 167 169 172 174 175 173 169 166 161 160 161 160 157 154 155 156 160
151 150 213 230 238 226 246 237 242 246 259 253 283 280 280 268 259 220 179 173 179 179 180 180 180 182 183 183 181 178 174 172 168 171 176 177 179 178 174 172 168 167 168 168 164 165 169 173 176
196 192 230 246 252 254 228 220 227 244 255 259 233 241 264 275 248 213 189 180 181 184 184 182 183 184 186 187 188 185 182 182 178 173 175 179 181 185 185 182 178 174 176 178 179 181 187 192 202
185 209 221 227 240 256 219 223 238 229 258 176 196 222 239 338 265 212 191 178 179 185 188 186 186 186 188 189 190 192 191 190 187 183 178 180 182 187 191 190 189 186 186 188 193 197 203 207 212
177 220 228 226 222 227 233 198 226 236 234 208 225 259 305 304 247 207 184 184 182 185 190 191 190 190 191 191 191 194 197 197 195 192 188 185 188 192 198 202 201 199 199 198 201 204 210 215 221
199 225 225 223 226 226 240 245 220 225 199 216 229 269 326 319 229 213 193 188 187 188 191 193 194 194 193 194 195 198 200 202 201 200 196 195 196 198 202 207 210 211 212 213 214 216 217 222 229
207 230 229 226 230 236 246 247 230 245 248 246 246 277 322 316 213 204 198 196 188 190 195 197 199 198 197 199 201 203 205 208 206 206 205 204 203 202 204 207 208 212 216 222 226 226 229 230 232
232 230 228 228 222 233 239 246 237 236 245 254 242 275 297 267 216 202 195 192 190 196 200 203 203 203 202 207 209 211 213 213 211 209 210 211 210 212 213 215 217 217 219 222 225 229 231 237 241
228 231 218 233 230 235 249 243 254 234 243 245 250 262 276 257 223 201 199 198 196 201 203 206 207 206 208 211 215 216 218 218 217 216 216 216 217 220 220 223 226 229 231 231 232 233 236 240 244
212 223 234 231 236 242 251 254 239 240 237 244 252 259 266 244 216 200 197 200 201 204 206 207 210 209 211 216 220 224 224 223 220 219 219 219 222 223 226 229 234 237 237 236 235 236 240 246 247
225 221 227 235 231 242 254 258 244 239 239 252 254 270 263 252 214 211 210 208 209 210 212 210 211 211 216 219 223 227 228 224 222 222 222 222 222 223 228 232 239 242 239 238 240 239 239 242 246
211 233 234 209 204 231 215 249 2 202 209 226 236 245 251 246 227 221 221 221 222 217 212 213 214 215 220 221 226 230 229 226 226 223 224 224 226 229 232 236 241 242 239 242 245 247 247 253 256
208 226 223 235 215 207 204 256 247 237 204 220 226 230 232 232 230 222 224 223 224 223 210 218 217 217 223 225 228 229 228 228 229 227 227 228 233 238 239 239 242 246 246 250 248 247 261 268 278
205 223 209 207 196 213 220 229 253 200 219 219 223 234 236 230 226 224 219 218 220 221 218 217 214 217 222 225 226 227 227 227 229 230 232 235 236 226 236 239 241 246 245 250 249 261 266 282 282
221 209 224 206 204 207 231 235 233 238 226 234 234 235 231 230 221 225 223 222 220 218 213 210 213 217 221 223 222 224 225 226 225 227 248 245 245 243 230 229 233 244 242 248 255 271 269 269 276
224 192 217 223 220 218 233 240 230 245 236 235 230 232 230 224 225 218 217 220 220 216 214 214 213 218 222 224 223 223 224 228 238 267 259 250 248 235 226 229 224 225 238 244 270 268 254 256 273
223 217 204 194 192 214 235 243 225 239 222 223 220 225 230 224 221 221 222 217 217 217 212 210 213 217 223 226 226 227 231 238 245 251 265 254 238 245 230 214 228 238 255 270 256 244 245 259 266
215 212 208 200 211 202 205 247 217 226 214 209 208 213 223 222 226 227 218 214 217 211 211 213 215 218 224 227 226 234 247 246 248 262 245 253 243 239 222 215 228 252 260 254 240 242 249 252 262
221 185 199 219 229 235 197 241 243 220 230 216 210 211 218 224 221 221 218 218 213 213 213 215 217 220 225 229 226 233 238 241 236 242 256 242 245 232 218 219 225 234 243 240 246 257 252 261 257
193 179 190 201 218 233 228 223 218 208 228 217 209 232 234 227 215 216 214 208 208 211 213 217 219 223 227 227 223 222 219 223 232 238 241 222 223 221 225 232 240 243 246 255 254 255 251 254 260
203 168 161 188 196 214 216 210 220 202 241 289 297 287 176 182 191 193 191 185 193 205 207 207 210 214 212 205 204 193 197 211 226 246 234 227 228 233 230 231 241 244 244 244 244 250 258 266 271
193 181 175 173 186 192 156 212 208 229 355 336 62 88 115 126 138 148 154 162 169 180 190 190 190 188 181 183 178 174 201 220 243 247 244 239 232 230 233 231 229 233 236 246 259 265 269 274 278
191 198 189 148 177 170 172 149 151 144 122 90 87 101 97 100 111 122 138 148 157 162 169 174 167 157 148 145 153 173 185 211 219 226 229 228 225 222 222 225 228 236 249 259 265 270 274 278 281
183 190 194 194 168 176 185 188 137 162 142 114 101 105 91 94 107 120 127 136 138 139 136 136 138 135 119 106 90 73 56 81 143 190 200 202 209 215 220 234 248 260 268 273 277 280 282 282 283
184 190 211 150 232 176 155 188 63 153 140 126 112 88 88 102 112 121 126 130 127 126 124 121 115 106 92 79 74 48 35 14 339 235 229 217 225 237 249 259 266 270 274 277 279 281 283 285 286
178 199 190 192 159 97 193 109 340 140 131 117 97 93 99 105 110 116 118 119 118 120 119 116 116 108 99 92 88 18 332 287 242 247 250 256 263 267 270 272 275 279 284 286 288 289 291 292 292